Regional Weather Roundup
Issued by NWS Sioux Falls, SD

Home | Current Version | Previous Version | Text Only | Print | Product List | Glossary On
Versions: 1 2 3 4 5 6 7 8 9 10 11 12 13 14 15 16 17 18 19 20 21 22 23 24 25 26 27 28 29 30 31 32 33 34 35 36 37 38 39 40 41 42 43 44 45 46 47 48 49 50
000
ASUS43 KFSD 210602
RWRFSD

WEATHER ROUNDUP FOR SE SOUTH DAKOTA/SW MINNESOTA/NW IOWA
NATIONAL WEATHER SERVICE SIOUX FALLS SD
100 AM CDT TUE APR 21 2015

NOTE: "FAIR" INDICATES FEW OR NO CLOUDS BELOW 12,000 FEET WITH NO
SIGNIFICANT WEATHER AND OR OBSTRUCTIONS TO VISIBILITY.


SDZ038>040-050-052>070-210700-
SOUTHEAST SOUTH DAKOTA

CITY           SKY/WX    TMP DP  RH WIND       PRES   REMARKS
BROOKINGS      FAIR      30  25  80 W9        29.71S WCI  22
CHAMBERLAIN    NOT AVBL
HURON          CLEAR     26  15  63 W8        29.76S WCI  18
6HR MIN TEMP:  26; 6HR MAX TEMP:  52;

MADISON        FAIR      32  25  74 NW9       29.72S WCI  24
MITCHELL       CLEAR     34  11  38 W7        29.79R WCI  28
6HR MIN TEMP:  30; 6HR MAX TEMP:  54;

SIOUX FALLS    FAIR      33  20  58 W6        29.74S WCI  28
6HR MIN TEMP:  32; 6HR MAX TEMP:  51;

WINNER         FAIR      39  18  42 W13       29.84R
YANKTON        FAIR      37  10  32 W14       29.78R
$$

MNZ071-072-080-081-089-090-097-098-210700-
SOUTHWEST MINNESOTA

CITY           SKY/WX    TMP DP  RH WIND       PRES   REMARKS
FAIRMONT       FAIR      37  25  60 W15       29.65R
JACKSON        FAIR      36  27  69 W13       29.67S
LUVERNE        FAIR      36  27  69 W10       29.73S
MARSHALL       FAIR      36  23  60 NW14      29.66S
6HR MIN TEMP:  34; 6HR MAX TEMP:  43;

MONTEVIDEO     FAIR      36  28  75 NW7       29.65S
REDWOOD FALLS  MOCLDY    38  30  73 NW13G23   29.64R
TRACY          FAIR      37  27  68 W9G16     29.67S
WORTHINGTON    FAIR      36  23  60 W15       29.70R
$$

IAZ001>003-012>014-020>022-031-032-NEZ013-014-SDZ071-210700-
NORTHWEST IOWA

CITY           SKY/WX    TMP DP  RH WIND       PRES   REMARKS
DENISON        FAIR      36  21  55 CALM      29.74S
ESTHERVILLE    FAIR      35  27  72 W15       29.68R WCI  25
SIOUX CITY     FAIR      39  15  37 W10       29.77R
6HR MIN TEMP:  39; 6HR MAX TEMP:  55;

SPENCER        FAIR      36  28  73 W14       29.71R
6HR MIN TEMP:  32; 6HR MAX TEMP:  51;

$$

ABBREVIATIONS USED IN REMARKS
   TC - TEMPERATURE IN CELSIUS
  WCI - WIND CHILL INDEX
   HX - HEAT INDEX
  VSB - VISIBILITY




USA.gov is the U.S. government's official web portal to all federal, state and local government web resources and services.